Hourly Data Report for July 31, 2017

ALGONQUIN PARK EAST GATE
ONTARIO

45°32'00.000" N
78°16'00.000" W
397.00 m
6080192
71581
TNK

Download Data

Hourly Data (July 2017)
Hourly Data Report for July 31, 2017
TIME
LST
Temp Definition
°C
Dew Point Definition
°C
Rel Hum Definition
%
Precip. Amount Definition
mm

Wind Dir Definition
10's deg

Wind Spd Definition
km/h
Visibility Definition
km
Stn Press Definition
kPa
Hmdx Definition


Wind Chill Definition


Weather Definition


00:00 14.2 11.7 85 0.0   0   97.13     LegendNANA
01:00 13.8 11.8 88 0.0   0   97.11     LegendNANA
02:00 13.0 11.1 88 0.0   0   97.08     LegendNANA
03:00 12.4 10.7 90 0.0   0   97.08     LegendNANA
04:00 11.9 10.3 90 0.0 0 1   97.11     LegendNANA
05:00 11.4 9.9 90 0.0   0   97.14     LegendNANA
06:00 12.3 10.7 90 0.0   0   97.18     LegendNANA
07:00 16.3 13.3 83 0.0 11 3   97.21     LegendNANA
08:00 21.1 15.2 69 0.0 1 5   97.22 25   LegendNANA
09:00 22.0 15.2 65 0.0 6 4   97.23 26   LegendNANA
10:00 23.7 14.9 58 0.0 36 4   97.23 28   LegendNANA
11:00 24.9 14.2 51 0.0 5 5   97.22 28   LegendNANA
12:00 25.4 15.0 53 0.0 35 4   97.19 29   LegendNANA
13:00 25.9 14.4 49 0.0 2 7   97.20 30   LegendNANA
14:00 26.9 13.2 43 0.0 2 7   97.18 30   LegendNANA
15:00 26.4 12.1 41 0.0 35 5   97.13 29   LegendNANA
16:00 26.6 12.6 42 0.0 36 4   97.16 29   LegendNANA
17:00 26.3 11.5 40 0.0 2 5   97.14 28   LegendNANA
18:00 25.1 10.1 39 0.0 8 3   97.15 26   LegendNANA
19:00 21.9 13.0 57 0.0   0   97.16 25   LegendNANA
20:00 18.5 14.0 75 0.0   0   97.22     LegendNANA
21:00 16.3 13.2 82 0.0 11 2   97.25     LegendNANA
22:00 14.7 12.1 84 0.0   0   97.25     LegendNANA
23:00 13.3 11.2 87 0.0   0   97.22     LegendNANA

Notes on Data Quality.

Legend

  • E = Estimated
  • M = Missing
  • NA = Not Available*
  • [empty] = Indicates an unobserved value
Date modified: